TIANWANG 1B (TW-1B)
1 40927U 15051C   19110.55331003  .00009966  00000-0  16149-3 0  9990
2 40927  97.1456 156.3138 0007074 233.0438 267.8087 15.52953340200832
TIANWANG 1A (TW-1A)
1 40928U 15051D   19110.45484862  .00003019  00000-0  76588-4 0  9999
2 40928  97.1518 143.0657 0009558 295.4068 173.0206 15.40414022200052
LAPAN A2
1 40931U 15052B   19110.38374369  .00000655  00000-0  20742-5 0  9991
2 40931   5.9987 119.5098 0013799  28.9478 331.1653 14.76604564192486
LQSAT
1 40958U 15057A   19110.19639783  .00000010  00000-0  91265-5 0  9991
2 40958  97.9023 180.9858 0019770  73.2640 287.0744 14.73073691190040
CHUBUSAT 2
1 41338U 16012B   19110.53904022  .00000320  00000-0  18187-4 0  9990
2 41338  31.0022 160.6843 0013819 237.5360 122.3939 15.00126485174020
CHUBUSAT 3
1 41339U 16012C   19110.51548286  .00000330  00000-0  18867-4 0  9991
2 41339  31.0093 159.0058 0013467 245.5539 114.3699 15.00303811174018
OUFTI-1
1 41458U 16025C   19110.17813113  .00002677  00000-0  13983-3 0  9992
2 41458  98.1008 194.0074 0167248 196.8091 162.7601 15.05592349163621
E-STAR-2
1 41459U 16025D   19110.44659615  .00002298  00000-0  12148-3 0  9999
2 41459  98.1015 193.9882 0168299 197.1142 162.4382 15.05248842163633
AAUSAT 4
1 41460U 16025E   19110.42839342  .00002800  00000-0  14415-3 0  9994
2 41460  98.0994 195.0677 0158792 190.2754 169.5116 15.07052137163742
NUSAT 1
1 41557U 16033B   19110.54820500  .00001345  00000-0  53327-4 0  9998
2 41557  97.4175 198.4006 0015006 141.9905 218.2396 15.27055107161064
BEESAT 4
1 41619U 16040W   19110.31906501  .00001286  00000-0  57710-4 0  9990
2 41619  97.3731 173.6363 0010168 225.9488 134.0912 15.22954429144828
PRATHAM
1 41783U 16059A   19109.75463118 +.00000052 +00000-0 +19408-4 0  9992
2 41783 098.0735 170.6408 0032964 210.3869 149.5423 14.62984424136783
ALSAT 1N
1 41789U 16059G   19110.40938947  .00000084  00000-0  24929-4 0  9998
2 41789  98.0749 173.1485 0027778 197.6929 162.3300 14.64230966136973
NAYIF 1
1 42017U 17008BX  19109.80730254  .00001444  00000-0  60132-4 0  9998
2 42017  97.4079 177.5086 0006975  34.7838 325.3855 15.25344446120794
LILACSAT-1
1 42725U 98067ME  19087.71781172  .15670676  12603-4  45746-3 0  9992
2 42725  51.6064 319.7683 0009359 299.6698  60.5570 16.44549673105565
MAX VALIER SAT
1 42778U 17036P   19109.69879450  .00000922  00000-0  43433-4 0  9997
2 42778  97.3606 168.6695 0014168  77.8745 282.4078 15.21893420101110
